Haines, AK

2:32 PM AKDT on May 25, 2017 (GMT -0800)
Haines

Weather History for PAHN - January, 2013

Change the Weather History Date:

Wednesday, January 9, 2013

  Actual Average Record
Temperature  
Mean Temperature 24 °F -  
Max Temperature 28 °F 26 °F 44 °F (2002)
Min Temperature 21 °F 19 °F -5 °F (1983)
Degree Days  
Heating Degree Days 40    
Moisture  
Dew Point 18 °F    
Average Humidity 76    
Maximum Humidity 85    
Minimum Humidity 63    
Precipitation  
Precipitation 0.00 in - - ()
Sea Level Pressure  
Sea Level Pressure 30.03 in    
Wind  
Wind Speed 14 mph (WNW)    
Max Wind Speed 17 mph    
Max Gust Speed 24 mph    
Visibility 10 miles    
Events      
Averages and records for this station are not official NWS values.
T = Trace of Precipitation, MM = Missing Value Source: NWS Daily Summary

Daily Weather History Graph

Daily Weather History Graph

Search for Another Location

Airport or City:

Trip Planner

Search our weather history database for the weather conditions in past years. The results will help you decide how hot, cold, wet, or windy it might be!

Date:

Astronomy

Jan. 09, 2013 Rise Set
Actual Time 8:50 AM AKST 3:28 PM AKST
Civil Twilight 7:58 AM AKST 4:20 PM AKST
Nautical Twilight 7:05 AM AKST 5:14 PM AKST
Astronomical Twilight 6:15 AM AKST 6:03 PM AKST
Moon 6:40 AM AKST (1/9) 1:36 PM AKST (1/9)
Length of Visible Light 8h 22m
Length of Day
6h 37m
Waning Crescent, 5% of the Moon is Illuminated
Jan 9
Waning Crescent
Jan 11
New
Jan 18
First Quarter
Jan 26
Full
Feb 3
Last Quarter

Hourly Weather History & Observations

Time (AKST) Temp. Windchill Dew Point Humidity Pressure Visibility Wind Dir Wind Speed Gust Speed Precip Events Conditions
12:54 AM 27.0 °F 16.1 °F 21.0 °F 78% 29.81 in 10.0 mi NW 12.7 mph 24.2 mph N/A   Clear
1:54 AM 26.1 °F 14.0 °F 21.0 °F 81% 29.83 in 10.0 mi NW 15.0 mph 23.0 mph N/A   Clear
3:54 AM 25.0 °F 13.1 °F 19.0 °F 78% 29.87 in 10.0 mi NW 13.8 mph - N/A   Partly Cloudy
4:54 AM 27.0 °F 16.1 °F 19.9 °F 75% 29.89 in 10.0 mi NW 12.7 mph 20.7 mph N/A   Clear
5:54 AM 21.0 °F 6.6 °F 17.1 °F 85% 29.92 in 10.0 mi WNW 17.3 mph - N/A   Clear
6:54 AM 28.0 °F 17.0 °F 19.9 °F 72% 29.94 in 10.0 mi NW 13.8 mph - N/A   Clear
7:54 AM 24.1 °F 12.5 °F 18.0 °F 77% 29.96 in 10.0 mi NW 12.7 mph - N/A   Clear
8:54 AM 24.1 °F 12.5 °F 17.1 °F 75% 29.99 in 10.0 mi WNW 12.7 mph - N/A   Clear
9:54 AM 21.9 °F 7.8 °F 16.0 °F 78% 30.00 in 10.0 mi WNW 17.3 mph - N/A   Clear
10:54 AM 21.9 °F 8.2 °F 16.0 °F 78% 30.01 in 10.0 mi WNW 16.1 mph - N/A   Clear
11:54 AM 28.0 °F 17.0 °F 17.1 °F 63% 30.02 in 10.0 mi WNW 13.8 mph 21.9 mph N/A   Clear
12:54 PM 21.0 °F 8.1 °F 17.1 °F 85% 30.04 in 10.0 mi WNW 13.8 mph - N/A   Scattered Clouds
1:54 PM 25.0 °F 11.7 °F 18.0 °F 75% 30.05 in 10.0 mi WNW 17.3 mph - N/A   Mostly Cloudy
2:54 PM 24.1 °F 11.5 °F 17.1 °F 75% 30.07 in 10.0 mi WNW 15.0 mph - N/A   Overcast
3:54 PM 26.1 °F 14.0 °F 18.0 °F 71% 30.09 in 10.0 mi NW 15.0 mph 20.7 mph N/A   Overcast
4:54 PM 25.0 °F 13.6 °F 18.0 °F 75% 30.10 in 10.0 mi WNW 12.7 mph - N/A   Overcast
5:54 PM 27.0 °F 18.0 °F 18.0 °F 69% 30.12 in 10.0 mi NW 9.2 mph - N/A   Overcast
6:54 PM 26.1 °F 14.5 °F 18.0 °F 71% 30.13 in 10.0 mi WNW 13.8 mph - N/A   Overcast
7:54 PM 27.0 °F 16.7 °F 18.0 °F 69% 30.13 in 10.0 mi WNW 11.5 mph - N/A   Overcast
8:54 PM 26.1 °F 15.0 °F 17.1 °F 69% 30.15 in 10.0 mi WNW 12.7 mph 19.6 mph N/A   Mostly Cloudy
9:54 PM 25.0 °F 16.3 °F 17.1 °F 72% 30.17 in 10.0 mi NW 8.1 mph - N/A   Partly Cloudy
10:54 PM 23.0 °F 11.7 °F 18.0 °F 81% 30.18 in 10.0 mi NW 11.5 mph - N/A   Clear
11:54 PM 21.0 °F 10.6 °F 17.1 °F 85% 30.20 in 10.0 mi WNW 9.2 mph - N/A   Clear